Terminal Aerodrome Forecast
Issued by NWS

Home | Current Version | Previous Version | Text Only | Print | Product List | Glossary On
Versions: 1 2 3 4 5 6 7 8 9 10 11 12
000
FTUS43 KSGF 031700
TAFJLN
TAF
KJLN 031720Z 0318/0418 19016G23KT P6SM FEW040 SCT100 BKN200
     FM040200 18010KT P6SM SCT250 WS020/20040KT
     FM041500 20015G21KT P6SM SCT250=

USA.gov is the U.S. government's official web portal to all federal, state and local government web resources and services.